Miscellaneous Local Product
Issued by NWS North Platte, NE

Home | Current Version | Previous Version | Graphics & Text | Print | Product List | Glossary On
Versions: 1 2 3 4 5 6 7 8 9 10 11 12 13 14 15 16 17 18 19 20 21 22 23 24 25 26 27 28 29 30 31 32 33 34 35 36 37 38 39 40 41 42 43 44 45 46 47 48 49 50
002
AXUS43 KLBF 290210
MISLBF


WESTERN AND NORTH CENTRAL NEBRASKA HOURLY WEATHER ROUNDUP
NATIONAL WEATHER SERVICE NORTH PLATTE NE
900 PM CDT THU JUL 28 2016

NOTE: "FAIR" INDICATES FEW OR NO CLOUDS BELOW 12,000 FEET WITH NO
SIGNIFICANT WEATHER AND/OR OBSTRUCTIONS TO VISIBILITY.

NOTE: STATIONS NOT REPORTING VARIABLES SUCH AS SKY/WEATHER OR
PRESSURE ARE PROVIDED BY RAWS AND APRS NETWORKS AND ARE NOT UNDER
NATIONAL WEATHER SERVICE QUALITY CONTROL.

...OBSERVATIONS IN AND NEAR THE EASTERN PANHANDLE OF NEBRASKA...

CITY           SKY/WX    TMP DP  RH WIND       PRES   REMARKS
PINE RIDGE     CLEAR     69  60  73 NE7       30.14R
CHADRON        CLEAR     73  56  54 NE8       30.11R
ALLIANCE       CLEAR     73  56  54 N3        30.14R
SIDNEY         CLOUDY    71  54  54 E7        30.18F
$$

...OBSERVATIONS IN NORTHERN NEBRASKA AND FAR SOUTHERN SOUTH DAKOTA...

CITY           SKY/WX    TMP DP  RH WIND       PRES   REMARKS
WINNER         TSTM      65  62  90 W6        30.10S FOG
VALENTINE      RAIN      64  61  90 NE14      30.12R FOG
THEDFORD       CLEAR     71  61  71 CALM      30.10S
AINSWORTH      MOCLDY    64  62  93 E6        30.10S
O`NEILL        LGT RAIN  71  66  85 NW6       30.07R
ORD            CLOUDY    72  63  73 CALM      30.04R
BROKEN BOW     MOCLDY    71  66  84 E5        30.06S
VALENTINE NWR    N/A     74  60  62 E3          N/A
BUTTE            N/A     73  60  63 CALM        N/A
HALSEY           N/A     74  58  57 CALM        N/A
EWING            N/A     71  67  88 CALM        N/A
$$

...OBSERVATIONS IN SOUTHWEST NEBRASKA AND FAR NORTHEAST COLORADO...

CITY           SKY/WX    TMP DP  RH WIND       PRES   REMARKS
WRAY           MOCLDY    72  59  64 NE7       30.16
HOLYOKE        FAIR      72  64  78 CALM      30.16S
IMPERIAL       PTCLDY    70  62  76 E5        30.13R
OGALLALA       PTCLDY    72  62  70 CALM      30.12R
NORTH PLATTE   CLEAR     69  64  84 CALM      30.10R
MCCOOK         CLEAR     68  61  78 N6        30.08S
LEXINGTON      CLEAR     70  65  83 W3        30.07R
STAPLETON        N/A     69  61  76 CALM        N/A
GOTHENBURG       N/A     75  59  57 CALM        N/A
CALLAWAY         N/A     76  67  72 CALM        N/A
$$

...OBSERVATIONS IN CENTRAL LINCOLN COUNTY AREA...

CITY           SKY/WX    TMP DP  RH WIND       PRES   REMARKS
N.P. AIRPORT   CLEAR     69  64  84 CALM      30.10R
N.P. DOWNTOWN    N/A     73  62  68 CALM        N/A
N.P. SOUTHEAST   N/A     71  62  74 CALM        N/A
N.P. HILLCREST   N/A     72  62  69 CALM        N/A
$$

...SOME OBSERVATIONS FROM AROUND THE REGION...

CITY           SKY/WX    TMP DP  RH WIND       PRES   REMARKS
DENVER         PTCLDY    74  55  51 NE18      30.20R
LARAMIE        MOCLDY    65  51  60 SE15      30.30R
CHEYENNE       CLOUDY    66  55  67 SE8       30.26R
SCOTTSBLUFF    PTCLDY    74  61  63 E8        30.15R
RAPID CITY     MOCLDY    70  58  65 E9        30.13S
BISMARCK       CLOUDY    72  55  55 N6        30.11S
PIERRE         CLOUDY    66  63  90 CALM      30.07F
SIOUX FALLS    MOCLDY    67  57  70 NE6       30.05R
OMAHA          CLOUDY    76  63  64 NE9       29.98F
GRAND ISLAND   CLOUDY    72  67  84 NE7       30.03R
KANSAS CITY    PTCLDY    76  65  68 N6        29.96R
WICHITA        TSTM      69  66  90 NE14      30.02F FOG
OKLAHOMA CITY  MOCLDY    81  72  74 SE3       29.91F
DALLAS         CLOUDY    83  71  67 S18G28    29.94R
AMARILLO       CLEAR     82  56  40 SE8       30.06S
DODGE CITY     CLEAR     81  65  58 E8        29.99R
HAYS           PTCLDY    70  57  64 E5        30.02S
GOODLAND       MOCLDY    71  63  75 NE7       30.12R
$$




USA.gov is the U.S. government's official web portal to all federal, state and local government web resources and services.